Date,TemperatureHighF,TemperatureAvgF,TemperatureLowF,DewpointHighF,DewpointAvgF,DewpointLowF,HumidityHigh,HumidityAvg,HumidityLow,PressureMaxIn,PressureMinIn,WindSpeedMaxMPH,WindSpeedAvgMPH,GustSpeedMaxMPH,PrecipitationSumIn
2013-1-1,32,26,17,30,23,11,94,87,81,30.21,30.07,2,1,0,0.00
2013-1-2,25,16,7,12,8,4,89,73,50,30.31,30.20,1,0,0,0.00
2013-1-3,32,23,11,26,16,4,88,76,61,30.35,30.25,6,1,0,0.00
2013-1-4,31,26,21,23,19,16,85,76,67,30.39,30.33,6,2,0,0.00
2013-1-5,39,28,16,31,23,13,93,84,63,30.37,30.16,4,1,0,0.00
2013-1-6,36,32,27,32,27,21,87,82,76,30.40,30.03,8,3,0,0.00
2013-1-7,38,27,15,28,22,12,93,81,64,30.48,30.25,5,1,0,0.00
2013-1-8,45,32,20,32,26,18,93,79,59,30.31,30.22,4,1,0,0.00
2013-1-9,48,40,30,40,35,27,93,82,64,30.52,30.20,3,1,0,0.00
2013-1-10,45,36,26,42,32,24,94,86,65,30.53,30.04,5,1,0,0.00
2013-1-11,58,53,45,54,49,42,96,87,74,30.04,29.83,5,2,0,0.00
2013-1-12,63,55,42,56,52,40,95,87,72,29.98,29.70,3,1,0,0.00
2013-1-13,56,37,23,55,34,20,95,92,85,30.24,29.63,9,2,0,0.00
2013-1-14,24,21,17,20,17,13,87,84,78,30.49,30.24,5,2,0,0.00
2013-1-15,32,26,20,23,20,17,87,77,63,30.44,30.13,4,1,0,0.00
2013-1-16,35,30,24,25,23,21,90,78,59,30.13,30.01,4,1,0,0.00
2013-1-17,39,33,24,31,25,17,84,74,60,30.45,30.11,4,1,0,0.00
2013-1-18,41,30,19,26,20,16,90,68,43,30.53,30.17,6,2,0,0.00
2013-1-19,52,45,39,38,31,24,73,59,52,30.18,29.88,8,5,0,0.00
2013-1-20,45,29,22,37,18,12,75,63,50,30.29,29.93,9,4,0,0.00
2013-1-21,23,17,11,15,8,-1,82,66,54,30.33,30.18,9,4,0,0.00
2013-1-22,17,12,6,2,0,-2,73,60,47,30.46,30.33,6,3,0,0.00
2013-1-23,24,18,11,14,6,1,71,60,51,30.42,30.15,3,1,0,0.00
2013-1-24,24,20,13,15,8,3,82,61,43,30.65,30.20,4,2,0,0.00
2013-1-25,28,23,19,20,15,6,87,70,50,30.45,30.09,5,2,0,0.00
2013-1-26,30,23,15,20,16,12,89,76,62,30.47,30.14,2,0,0,0.00
2013-1-27,37,29,21,35,23,16,93,80,70,30.46,30.09,5,2,0,0.00
2013-1-28,55,48,37,53,47,35,96,94,86,30.13,29.98,5,2,0,0.00
2013-1-29,65,59,54,58,55,52,96,88,81,29.98,29.39,9,4,0,0.00
2013-1-30,65,47,28,59,44,22,95,89,78,29.64,29.25,11,5,0,0.00
2013-1-31,28,23,12,24,18,6,86,78,70,30.15,29.63,9,6,0,0.00